1486897200.94,15770,10.31,74076.5,10.13,-32.23,-32.23,0,*4A
1486897202.14,15771,10.31,74074.5,10.13,-32.23,-32.51,0,*4E
1486897203.35,15772,10.25,74072.5,10.13,-32.57,-32.91,0,*42
1486897204.64,15773,10.25,74072.5,10.11,-32.79,-33.27,0,*41
1486897205.9,15774,10.31,74076.8,10.11,-32.75,-32.91,0,*46
1486897207.16,15775,10.25,74074.0,10.09,-31.39,-31.39,0,*44
1486897208.39,15776,10.25,74072.8,10.09,-29.79,-30.01,0,*40
1486897209.62,15777,10.25,74072.0,10.09,-31.11,-31.33,0,*46
1486897210.85,15778,10.25,74072.0,10.09,-31.85,-32.01,0,*46
1486897212.08,15779,10.25,74074.8,10.09,-31.45,-31.73,0,*4D
1486897213.31,15780,10.25,74074.5,10.09,-31.01,-31.23,0,*4E
1486897214.52,15781,10.31,74076.5,10.09,-31.17,-31.17,0,*4F
1486897215.77,15782,10.31,74076.3,10.09,-31.57,-31.73,0,*4A
1486897217.03,15783,10.25,74074.5,10.09,-31.51,-31.85,0,*44
1486897218.26,15784,10.25,74072.5,10.09,-31.23,-31.67,0,*4A
1486897219.49,15785,10.25,74074.3,10.09,-31.23,-31.33,0,*4A
1486897220.72,15786,10.31,74072.8,10.09,-30.45,-30.61,0,*4E
1486897221.92,15787,10.25,74070.0,10.09,-31.33,-31.67,0,*48
1486897223.15,15788,10.25,74072.5,10.09,-31.23,-31.33,0,*47
1486897224.38,15789,10.25,74072.0,10.07,-31.05,-31.29,0,*47
1486897225.65,15790,10.25,74072.3,10.09,-30.95,-31.23,0,*43
1486897226.9,15791,10.25,74072.5,10.09,-31.91,-32.19,0,*4D
1486897228.13,15792,10.25,74072.0,10.09,-31.39,-31.67,0,*46
1486897229.36,15793,10.25,74072.8,10.09,-32.01,-32.19,0,*45
1486897230.63,15794,10.25,74074.3,10.07,-32.29,-32.51,0,*4A
1486897231.86,15795,10.25,74072.0,10.07,-32.23,-32.35,0,*43
1486897233.09,15796,10.31,74078.0,10.07,-31.05,-31.17,0,*44
1486897234.35,15797,10.25,74076.0,10.07,-30.55,-30.83,0,*4D
1486897235.64,15798,10.31,74076.3,10.07,-31.73,-32.07,0,*49
1486897236.92,15799,10.31,74074.3,10.07,-31.39,-31.73,0,*46
1486897238.21,15800,10.25,74072.3,10.07,-31.61,-31.95,0,*4C
1486897239.47,15801,10.25,74072.0,10.07,-30.73,-31.05,0,*46
1486897240.71,15802,10.31,74078.5,10.07,-30.83,-31.05,0,*4A
1486897241.96,15803,10.25,74076.0,10.09,-30.17,-30.51,0,*48
1486897243.26,15804,10.25,74072.5,10.07,-31.23,-31.61,0,*45
1486897244.49,15805,10.31,74078.0,10.07,-31.01,-31.17,0,*45
1486897245.75,15806,10.25,74070.8,10.09,-31.11,-31.23,0,*4E
1486897247.04,15807,10.25,74072.0,10.07,-31.73,-31.95,0,*48
1486897248.3,15808,10.25,74072.3,10.07,-31.91,-32.13,0,*46
1486897249.53,15809,10.25,74072.0,10.07,-31.05,-31.29,0,*40
1486897250.77,15810,10.25,74074.0,10.05,-30.89,-31.05,0,*41
1486897252.01,15811,10.25,74074.8,10.07,-29.83,-29.95,0,*40
1486897253.26,15812,10.25,74070.8,10.09,-29.73,-29.89,0,*4F
1486897254.55,15813,10.25,74072.5,10.07,-31.23,-31.39,0,*4E
1486897255.78,15814,10.25,74074.8,10.09,-32.91,-33.09,0,*4C
1486897257.07,15815,10.25,74072.8,10.07,-32.85,-33.31,0,*4D
1486897258.36,15816,10.25,74072.3,10.07,-31.73,-31.91,0,*4C
1486897259.59,15817,10.25,74072.8,10.03,-31.79,-31.95,0,*47
1486897260.82,15818,10.25,74072.3,10.05,-30.77,-31.05,0,*48
1486897262.06,15819,10.25,74076.0,10.05,-32.35,-32.85,0,*46
1486897263.27,15820,10.25,74072.3,10.05,-31.79,-32.13,0,*48
1486897264.53,15821,10.31,74076.5,10.05,-31.95,-32.19,0,*41
1486897265.76,15822,10.25,74072.5,10.03,-31.33,-31.51,0,*47
1486897266.99,15823,10.25,74068.0,10.03,-31.67,-31.95,0,*4F
1486897268.25,15824,10.25,74074.0,10.03,-30.61,-30.89,0,*43
1486897269.5,15825,10.25,74074.0,10.05,-30.77,-30.95,0,*4E
1486897270.76,15826,10.25,74072.8,10.03,-30.77,-30.95,0,*4B
1486897272.0,15827,10.25,74072.5,10.05,-31.45,-31.51,0,*45
1486897273.2,15828,10.25,74072.0,10.05,-32.13,-32.13,0,*4F
1486897274.43,15829,10.25,74072.3,10.03,-32.57,-33.09,0,*42
1486897275.66,15830,10.25,74074.3,10.03,-31.85,-32.13,0,*4C
1486897276.89,15831,10.25,74074.0,10.03,-31.85,-32.13,0,*4D
1486897278.12,15832,10.25,74074.5,10.03,-32.51,-32.85,0,*4B
1486897279.4,15833,10.25,74076.0,10.01,-31.91,-32.19,0,*42
1486897280.66,15834,10.25,74074.0,9.99,-31.91,-31.95,0,*7B
1486897281.91,15835,10.25,74072.8,9.99,-31.95,-32.07,0,*76
1486897283.16,15836,10.25,74070.8,9.99,-31.61,-31.73,0,*7E
1486897284.39,15837,10.25,74070.8,9.99,-32.45,-32.51,0,*79
1486897285.64,15838,10.25,74072.0,9.99,-32.45,-32.97,0,*7C
1486897286.87,15839,10.25,74072.0,9.95,-32.79,-33.21,0,*72
1486897288.12,15840,10.31,74074.8,9.93,-32.19,-32.35,0,*78
1486897289.37,15841,10.25,74072.3,9.95,-31.39,-31.61,0,*7C
1486897290.6,15842,10.25,74074.8,9.95,-30.73,-31.05,0,*72
1486897291.83,15843,10.25,74074.3,9.95,-30.39,-30.67,0,*78
1486897293.05,15844,10.25,74072.0,9.99,-30.33,-30.51,0,*7C
1486897294.29,15845,10.25,74074.5,9.95,-29.83,-30.01,0,*77
1486897295.48,15846,10.25,74072.3,9.99,-30.11,-30.23,0,*7B
1486897296.74,15847,10.25,74072.0,10.01,-30.61,-30.83,0,*4E
1486897297.97,15848,10.25,74072.3,9.99,-30.51,-30.67,0,*71
1486897299.25,15849,10.25,74074.5,10.01,-30.51,-31.11,0,*49
1486897300.5,15850,10.25,74072.5,10.01,-30.77,-30.83,0,*4F
1486897301.73,15851,10.25,74074.8,9.99,-30.39,-30.67,0,*77
1486897302.99,15852,10.25,74074.8,10.01,-30.95,-31.29,0,*40
1486897304.26,15853,10.25,74074.8,10.01,-30.77,-30.95,0,*4B
1486897305.53,15854,10.25,74074.0,10.01,-31.39,-31.57,0,*48
1486897306.78,15855,10.25,74076.3,9.99,-31.51,-31.85,0,*71
1486897308.03,15856,10.25,74072.3,10.03,-30.95,-31.11,0,*4D
1486897309.28,15857,10.25,74074.5,10.01,-30.67,-30.95,0,*4E
1486897310.54,15858,10.25,74072.3,10.01,-30.95,-31.17,0,*47
1486897311.79,15859,10.25,74074.0,10.03,-30.73,-31.11,0,*4A
1486897313.06,15860,10.25,74072.8,10.03,-30.73,-30.77,0,*41
1486897314.28,15861,10.25,74072.5,10.03,-30.73,-31.05,0,*44
1486897315.52,15862,10.25,74078.8,10.05,-31.23,-31.33,0,*40
1486897316.77,15863,10.25,74076.5,10.03,-31.51,-31.85,0,*4F
1486897318.03,15864,10.25,74072.3,10.03,-31.95,-32.29,0,*45
1486897319.3,15865,10.25,74074.3,10.01,-31.57,-31.91,0,*48
1486897320.53,15866,10.25,74076.3,10.01,-32.01,-32.23,0,*41
1486897321.79,15867,10.25,74074.5,10.01,-32.07,-32.35,0,*41
1486897323.04,15868,10.25,74074.8,10.01,-31.67,-31.91,0,*46
1486897324.27,15869,10.25,74072.8,10.01,-32.01,-32.23,0,*4E
1486897325.49,15870,10.25,74074.3,9.99,-31.73,-31.79,0,*75
1486897326.74,15871,10.25,74074.0,10.01,-31.73,-32.01,0,*41
1486897327.99,15872,10.25,74074.0,10.01,-31.01,-31.39,0,*4F
1486897329.24,15873,10.25,74072.3,9.99,-31.95,-32.29,0,*78
1486897330.47,15874,10.25,74074.3,9.99,-31.23,-31.33,0,*7A
1486897331.7,15875,10.25,74074.8,10.01,-30.67,-31.01,0,*42
1486897332.96,15876,10.25,74072.3,10.01,-30.77,-30.83,0,*4B
1486897334.21,15877,10.25,74074.3,10.01,-31.29,-31.51,0,*4E
1486897335.46,15878,10.25,74076.8,10.01,-30.77,-31.01,0,*4E
1486897336.71,15879,10.25,74072.8,10.01,-31.67,-31.91,0,*46
1486897337.96,15880,10.25,74074.3,10.01,-32.23,-32.63,0,*4D
1486897339.16,15881,10.25,74072.8,9.99,-33.03,-33.37,0,*76
1486897340.38,15882,10.25,74074.0,9.99,-33.31,-33.55,0,*70
1486897341.64,15883,10.25,74074.5,9.95,-32.45,-32.79,0,*70
1486897342.87,15884,10.25,74076.3,9.95,-31.45,-31.73,0,*7D
1486897344.1,15885,10.25,74072.0,9.95,-30.89,-31.17,0,*7F
1486897345.31,15886,10.25,74072.5,9.95,-30.83,-31.17,0,*76
1486897346.56,15887,10.25,74078.0,9.95,-31.73,-31.91,0,*77
1486897347.76,15888,10.25,74076.0,9.95,-31.01,-31.33,0,*75
1486897349.01,15889,10.25,74074.0,9.99,-31.23,-31.57,0,*7A
1486897350.25,15890,10.25,74070.5,9.95,-31.23,-31.45,0,*7D
1486897351.46,15891,10.25,74072.8,9.95,-31.45,-31.79,0,*73
1486897352.69,15892,10.25,74074.5,9.95,-30.89,-31.17,0,*79
1486897353.92,15893,10.25,74078.8,9.95,-31.33,-31.61,0,*79
1486897355.14,15894,10.25,74078.5,9.99,-31.33,-31.57,0,*77
1486897356.34,15895,10.25,74078.5,9.99,-31.17,-31.33,0,*72
1486897357.57,15896,10.25,74076.3,9.95,-31.45,-31.91,0,*72
1486897358.78,15897,10.25,74072.5,9.95,-32.13,-32.51,0,*7C
1486897359.99,15898,10.25,74076.8,9.95,-32.69,-33.03,0,*78
1486897361.21,15899,10.25,74076.0,9.93,-33.03,-33.37,0,*75
1486897362.41,15900,10.25,74074.3,9.91,-32.23,-32.39,0,*7A
1486897363.64,15901,10.25,74074.5,9.91,-32.19,-32.51,0,*7C
1486897364.85,15902,10.25,74074.5,9.91,-31.45,-31.67,0,*73
1486897366.08,15903,10.25,74074.5,9.91,-30.61,-30.83,0,*7E
1486897367.34,15904,10.25,74078.8,9.93,-30.55,-30.95,0,*7B
1486897368.6,15905,10.25,74078.0,9.95,-31.23,-31.61,0,*76
1486897369.89,15906,10.25,74072.8,9.93,-31.11,-31.23,0,*74
1486897371.14,15907,10.25,74076.0,9.93,-30.95,-31.29,0,*72
1486897372.36,15908,10.25,74074.3,9.93,-31.67,-32.13,0,*7B
1486897373.61,15909,10.25,74072.8,9.93,-31.29,-31.61,0,*76
1486897374.86,15910,10.25,74074.3,9.93,-30.77,-31.05,0,*76
1486897376.1,15911,10.25,74072.8,9.95,-31.23,-31.45,0,*75
1486897377.38,15912,10.25,74074.8,9.93,-30.95,-31.23,0,*7C
1486897378.65,15913,10.25,74072.5,9.93,-30.89,-31.23,0,*70
1486897379.91,15914,10.25,74074.5,9.93,-30.45,-30.77,0,*77
1486897381.13,15915,10.25,74078.3,9.95,-30.73,-31.01,0,*75
1486897382.39,15916,10.25,74074.0,9.95,-30.55,-30.89,0,*73
1486897383.59,15917,10.25,74074.0,9.95,-31.05,-31.33,0,*76
1486897384.82,15918,10.25,74072.5,9.99,-30.83,-31.23,0,*7B
1486897386.06,15919,10.25,74078.0,9.99,-31.39,-31.73,0,*7F
1486897387.28,15920,10.25,74072.0,9.99,-31.33,-31.57,0,*79
1486897388.52,15921,10.25,74074.5,9.95,-31.23,-31.45,0,*76
1486897389.78,15922,10.25,74076.3,9.95,-31.57,-31.95,0,*7B
1486897390.98,15923,10.25,74072.5,9.95,-31.79,-32.13,0,*7B
1486897392.23,15924,10.25,74078.3,9.95,-32.97,-33.49,0,*71
1486897393.46,15925,10.25,74074.3,9.93,-32.13,-32.51,0,*72
1486897394.71,15926,10.25,74078.5,9.93,-31.61,-32.13,0,*71
1486897395.99,15927,10.25,74072.8,9.93,-32.29,-32.75,0,*7F
1486897397.21,15928,10.25,74078.5,9.91,-32.39,-32.79,0,*7F
1486897398.42,15929,10.25,74074.5,9.91,-32.51,-32.91,0,*76
1486897399.67,15930,10.25,74072.5,9.89,-32.35,-32.79,0,*73
1486897400.92,15931,10.25,74074.5,9.89,-31.17,-31.51,0,*78
1486897402.15,15932,10.25,74074.5,9.89,-30.83,-31.17,0,*75
1486897403.38,15933,10.25,74076.3,9.91,-30.67,-31.11,0,*71
1486897404.62,15934,10.25,74074.5,9.91,-31.11,-31.45,0,*77
1486897405.87,15935,10.25,74076.3,9.89,-31.67,-31.91,0,*77
1486897407.12,15936,10.25,74076.8,9.91,-31.51,-31.85,0,*7D
1486897408.35,15937,10.25,74074.0,9.91,-31.11,-31.45,0,*74
1486897409.57,15938,10.25,74074.5,9.91,-31.33,-31.57,0,*78
1486897410.8,15939,10.25,74076.8,9.91,-30.45,-30.77,0,*7A
1486897412.06,15940,10.25,74072.5,9.93,-30.45,-30.77,0,*76
1486897413.33,15941,10.25,74074.5,9.93,-30.89,-31.23,0,*77
1486897414.61,15942,10.25,74074.8,9.93,-31.85,-32.29,0,*70
1486897415.83,15943,10.25,74072.5,9.93,-31.67,-32.13,0,*74
1486897417.1,15944,10.25,74076.0,9.93,-30.77,-31.11,0,*72
1486897418.36,15945,10.25,74078.8,9.95,-31.11,-31.91,0,*7C
1486897419.63,15946,10.25,74078.3,9.93,-32.29,-32.75,0,*78
1486897420.91,15947,10.25,74076.0,9.93,-33.27,-33.77,0,*75
1486897422.18,15948,10.25,74076.5,9.93,-32.19,-32.45,0,*76
1486897423.4,15949,10.25,74074.0,9.91,-32.39,-32.97,0,*78
1486897424.66,15950,10.25,74076.0,9.89,-32.91,-33.43,0,*73
1486897425.86,15951,10.25,74074.5,9.87,-33.67,-34.13,0,*76
1486897427.05,15952,10.25,74076.0,9.87,-33.55,-34.07,0,*71
1486897428.29,15953,10.25,74076.0,9.87,-32.79,-33.37,0,*7B
1486897429.54,15954,10.25,74074.5,9.85,-32.01,-32.19,0,*7C
1486897430.82,15955,10.25,74076.3,9.85,-31.39,-31.61,0,*79
1486897432.06,15956,10.25,74078.5,9.85,-31.05,-31.39,0,*78
1486897433.31,15957,10.25,74078.3,9.87,-31.61,-32.29,0,*7B
1486897434.56,15958,10.25,74074.3,9.85,-32.75,-33.21,0,*79
1486897435.79,15959,10.25,74076.3,9.85,-31.79,-32.01,0,*74
1486897437.07,15960,10.25,74072.3,9.85,-30.77,-31.23,0,*72
1486897438.34,15961,10.25,74076.0,9.85,-30.73,-31.11,0,*76
1486897439.56,15962,10.25,74076.8,9.87,-30.55,-31.01,0,*72
1486897440.79,15963,10.25,74072.0,9.87,-30.73,-31.17,0,*70
1486897442.04,15964,10.25,74078.3,9.87,-30.51,-30.89,0,*71
1486897443.28,15965,10.25,74078.3,9.91,-30.27,-30.61,0,*70
1486897444.53,15966,10.25,74076.3,9.89,-30.67,-31.11,0,*78
1486897445.78,15967,10.25,74076.5,9.89,-30.51,-31.01,0,*7D
1486897447.01,15968,10.25,74078.5,9.91,-30.95,-31.33,0,*72
1486897448.26,15969,10.25,74078.0,9.89,-30.95,-31.17,0,*7C
1486897449.46,15970,10.25,74074.3,9.91,-31.29,-31.67,0,*7C
1486897450.67,15971,10.25,74072.0,9.91,-32.01,-32.51,0,*72
1486897451.92,15972,10.25,74078.5,9.89,-31.33,-31.73,0,*79
1486897453.17,15973,10.25,74074.0,9.91,-30.95,-31.51,0,*7C
1486897454.41,15974,10.25,74080.3,9.89,-32.01,-32.39,0,*70
1486897455.66,15975,10.25,74078.8,9.91,-31.57,-31.91,0,*79
1486897456.93,15976,10.25,74082.0,9.89,-31.51,-31.85,0,*70
1486897458.14,15977,10.25,74078.0,9.91,-31.01,-31.45,0,*71
1486897459.41,15978,10.25,74078.0,9.89,-31.57,-31.73,0,*71
1486897460.61,15979,10.25,74076.8,9.91,-32.35,-32.91,0,*71
1486897461.86,15980,10.25,74076.0,9.89,-31.91,-32.23,0,*7A
1486897463.08,15981,10.25,74078.0,9.87,-31.33,-31.57,0,*7D
1486897464.3,15982,10.25,74074.8,9.87,-31.39,-31.79,0,*78
1486897465.55,15983,10.25,74080.0,9.89,-31.17,-31.57,0,*77
1486897466.76,15984,10.25,74076.0,9.91,-30.83,-31.17,0,*71
1486897467.98,15985,10.25,74078.5,9.89,-30.83,-31.33,0,*7F
1486897469.21,15986,10.25,74076.3,9.91,-31.67,-32.19,0,*75
1486897470.46,15987,10.25,74078.8,9.91,-32.97,-33.49,0,*7C
1486897471.69,15988,10.25,74080.5,9.89,-32.51,-32.91,0,*74
1486897472.89,15989,10.25,74074.5,9.87,-31.79,-32.39,0,*70
1486897474.09,15990,10.25,74080.8,9.87,-31.05,-31.33,0,*7A
1486897475.29,15991,10.25,74078.8,9.87,-30.83,-31.05,0,*71
1486897476.52,15992,10.25,74078.0,9.87,-30.55,-30.83,0,*76
1486897477.77,15993,10.25,74078.8,9.91,-29.73,-30.05,0,*72
1486897479.05,15994,10.25,74076.3,9.89,-31.57,-32.07,0,*73
1486897480.33,15995,10.25,74078.5,9.89,-32.79,-33.27,0,*7E
1486897481.58,15996,10.25,74074.0,9.89,-32.51,-33.09,0,*7B
1486897482.83,15997,10.25,74074.8,9.87,-32.29,-32.63,0,*76
1486897484.1,15998,10.25,74076.5,9.85,-32.29,-32.63,0,*7B
1486897485.32,15999,10.25,74080.5,9.87,-31.61,-31.79,0,*7F
1486897486.6,16000,10.25,74076.0,9.85,-30.95,-31.39,0,*79
1486897487.83,16001,10.25,74076.0,9.87,-31.91,-32.39,0,*7C
1486897489.08,16002,10.25,74078.0,9.85,-31.95,-32.35,0,*75
1486897490.31,16003,10.25,74078.5,9.85,-32.13,-32.51,0,*7B
1486897491.56,16004,10.25,74082.5,9.85,-32.63,-32.69,0,*70
1486897492.76,16005,10.25,74078.3,9.83,-31.79,-32.13,0,*72
1486897493.99,16006,10.25,74076.0,9.83,-31.57,-31.79,0,*72
1486897495.18,16007,10.25,74076.5,9.83,-31.67,-32.01,0,*7C
1486897496.43,16008,10.25,74076.5,9.83,-33.27,-33.77,0,*75
1486897497.68,16009,10.25,74076.8,9.81,-32.57,-32.97,0,*7F
1486897498.93,16010,10.25,74076.3,9.81,-30.83,-31.11,0,*71
1486897500.16,16011,10.25,74072.8,9.81,-30.67,-31.01,0,*7B
1486897501.41,16012,10.25,74076.5,9.83,-30.77,-31.23,0,*7B
1486897502.64,16013,10.25,74078.3,9.83,-30.77,-31.05,0,*7E
1486897503.88,16014,10.25,74076.5,9.83,-29.67,-30.17,0,*72
1486897505.08,16015,10.25,74078.3,9.83,-31.05,-31.45,0,*78
1486897506.32,16016,10.25,74078.3,9.83,-31.11,-31.45,0,*7E
1486897507.56,16017,10.25,74078.0,9.87,-30.61,-31.39,0,*76
1486897508.78,16018,10.25,74076.0,9.85,-32.91,-33.55,0,*7E
1486897510.04,16019,10.25,74076.3,9.83,-31.95,-32.63,0,*7A
1486897511.28,16020,10.25,74074.5,9.81,-32.35,-32.75,0,*7C
1486897512.52,16021,10.25,74078.5,9.81,-32.01,-32.39,0,*72
1486897513.77,16022,10.25,74076.0,9.81,-31.29,-31.61,0,*76
1486897515.02,16023,10.25,74080.8,9.83,-31.11,-31.39,0,*73
1486897516.28,16024,10.25,74072.5,9.81,-31.73,-32.23,0,*7A
1486897517.48,16025,10.25,74076.0,9.83,-32.13,-32.51,0,*79
1486897518.76,16026,10.25,74080.5,9.81,-31.61,-31.91,0,*71
1486897519.99,16027,10.25,74076.5,9.83,-31.11,-31.45,0,*7C
1486897521.27,16028,10.25,74080.3,9.81,-30.39,-30.77,0,*7A
1486897522.49,16029,10.25,74080.0,9.81,-31.17,-31.67,0,*76
1486897523.72,16030,10.25,74078.5,9.83,-31.45,-31.85,0,*77
1486897524.97,16031,10.25,74078.8,9.83,-30.55,-30.89,0,*7B
1486897526.22,16032,10.25,74078.5,9.83,-30.39,-30.77,0,*73
1486897527.43,16033,10.25,74078.5,9.87,-29.95,-30.45,0,*79
1486897528.7,16034,10.25,74080.3,9.85,-30.17,-30.55,0,*7F
1486897529.91,16035,10.25,74080.3,9.87,-30.67,-31.01,0,*7B
1486897531.11,16036,10.25,74080.0,9.87,-30.83,-31.33,0,*73
1486897532.38,16037,10.25,74078.5,9.85,-30.55,-30.77,0,*7A
1486897533.59,16038,10.25,74078.8,9.87,-29.95,-30.33,0,*73
1486897534.85,16039,10.25,74076.5,9.89,-30.67,-31.11,0,*78
1486897536.07,16040,10.25,74076.3,9.89,-29.79,-30.11,0,*70
1486897537.28,16041,10.25,74076.5,9.91,-30.27,-30.67,0,*7A
1486897538.5,16042,10.25,74076.8,9.91,-30.45,-30.95,0,*70
1486897539.7,16043,10.25,74078.8,9.91,-31.01,-31.45,0,*7C
1486897540.93,16044,10.25,74072.5,9.91,-32.23,-32.63,0,*7F
1486897542.18,16045,10.25,74076.5,9.91,-33.31,-33.89,0,*79
1486897543.45,16046,10.25,74076.3,9.89,-33.73,-34.35,0,*75
1486897544.73,16047,10.25,74078.3,9.89,-33.43,-33.73,0,*72
1486897546.0,16048,10.25,74078.8,9.85,-31.11,-31.57,0,*70
1486897547.26,16049,10.25,74078.5,9.87,-30.51,-30.73,0,*71
1486897548.49,16050,10.25,74076.8,9.87,-30.27,-30.51,0,*78
1486897549.74,16051,10.25,74078.5,9.87,-30.17,-30.39,0,*74
1486897550.99,16052,10.25,74076.5,9.89,-30.77,-31.17,0,*72
1486897552.22,16053,10.25,74078.5,9.89,-30.67,-31.01,0,*75
1486897553.47,16054,10.25,74074.3,9.91,-31.11,-31.91,0,*72
1486897554.76,16055,10.25,74076.3,9.89,-32.79,-33.43,0,*7A
1486897556.03,16056,10.25,74078.3,9.89,-33.27,-33.89,0,*75
1486897557.28,16057,10.25,74076.8,9.87,-31.51,-31.91,0,*72
1486897558.51,16058,10.25,74078.0,9.87,-31.95,-32.39,0,*74
1486897559.77,16059,10.25,74080.5,9.87,-31.57,-31.95,0,*7E
1486897561.02,16060,10.25,74076.3,9.85,-32.85,-33.55,0,*74
1486897562.3,16061,10.25,74076.5,9.85,-31.95,-32.45,0,*77
1486897563.56,16062,10.25,74078.8,9.85,-32.29,-32.63,0,*74
1486897564.84,16063,10.25,74078.5,9.81,-31.73,-32.19,0,*70
1486897566.1,16064,10.25,74076.5,9.83,-31.95,-32.45,0,*74
1486897567.35,16065,10.25,74080.0,9.81,-31.61,-32.01,0,*7C
1486897568.56,16066,10.25,74078.0,9.83,-32.01,-32.51,0,*7D
1486897569.79,16067,10.25,74078.3,9.83,-31.67,-32.19,0,*73
1486897571.01,16068,10.25,74080.0,9.81,-31.67,-32.13,0,*74
1486897572.22,16069,10.25,74078.0,9.83,-31.05,-31.57,0,*70
1486897573.45,16070,10.25,74076.8,9.83,-30.61,-31.05,0,*7C
1486897574.7,16071,10.25,74076.0,9.83,-31.11,-31.61,0,*79
1486897575.94,16072,10.25,74080.3,9.85,-32.69,-33.37,0,*71
1486897577.21,16073,10.25,74076.3,9.85,-32.19,-32.63,0,*77
1486897578.48,16074,10.25,74076.3,9.81,-33.61,-34.01,0,*78
1486897579.71,16075,10.25,74076.8,9.81,-32.23,-32.69,0,*76
1486897580.93,16076,10.25,74078.8,9.83,-31.05,-31.57,0,*7E
1486897582.18,16077,10.25,74076.0,9.81,-30.95,-31.29,0,*7C
1486897583.41,16078,10.25,74082.0,9.83,-30.33,-30.61,0,*70
1486897584.66,16079,10.25,74076.5,9.83,-30.17,-30.55,0,*70
1486897585.86,16080,10.25,74082.0,9.83,-30.23,-30.45,0,*70
1486897587.11,16081,10.25,74074.5,9.87,-30.17,-30.55,0,*73
1486897588.34,16082,10.25,74076.5,9.87,-29.95,-30.39,0,*78
1486897589.56,16083,10.25,74078.5,9.87,-30.55,-31.05,0,*73
1486897590.81,16084,10.25,74082.5,9.89,-30.05,-30.45,0,*7A
1486897592.04,16085,10.25,74080.3,9.89,-30.67,-31.17,0,*79
1486897593.24,16086,10.25,74076.0,9.91,-30.67,-31.17,0,*73
1486897594.47,16087,10.25,74076.0,9.89,-30.11,-30.33,0,*7D
1486897595.73,16088,10.25,74076.5,9.89,-29.89,-30.23,0,*7A
1486897596.96,16089,10.25,74076.8,9.91,-30.11,-30.51,0,*7E
1486897598.17,16090,10.25,74082.0,9.91,-30.45,-30.95,0,*7F
1486897599.43,16091,10.25,74078.3,9.91,-30.77,-31.11,0,*72
1486897600.7,16092,10.25,74080.0,9.93,-30.61,-31.11,0,*74
1486897601.93,16093,10.25,74078.8,9.93,-31.05,-31.45,0,*77
1486897603.2,16094,10.25,74076.5,9.93,-30.39,-30.77,0,*7E
1486897604.48,16095,10.25,74078.5,9.93,-30.95,-31.51,0,*7C
1486897605.71,16096,10.25,74076.3,9.95,-30.89,-31.33,0,*70
1486897606.96,16097,10.25,74076.8,9.95,-30.39,-30.89,0,*7A
1486897608.17,16098,10.25,74078.8,9.95,-30.67,-31.17,0,*78
1486897609.39,16099,10.25,74076.8,9.95,-31.05,-31.61,0,*7D
1486897610.6,16100,10.25,74076.5,9.95,-30.23,-30.67,0,*7E
1486897611.81,16101,10.25,74082.3,9.95,-30.83,-31.17,0,*73
1486897613.02,16102,10.25,74078.3,9.95,-30.67,-31.17,0,*7A
1486897614.24,16103,10.25,74076.5,10.01,-30.11,-30.45,0,*49
1486897615.49,16104,10.25,74078.0,9.99,-30.39,-30.89,0,*7D
1486897616.72,16105,10.25,74078.3,9.99,-30.33,-30.73,0,*73
1486897617.94,16106,10.25,74078.3,9.99,-30.55,-31.01,0,*74
1486897619.17,16107,10.25,74080.5,10.01,-30.33,-30.83,0,*47
1486897620.46,16108,10.25,74074.8,10.01,-29.89,-30.17,0,*4C
1486897621.71,16109,10.25,74078.8,10.01,-30.61,-31.01,0,*45
1486897622.98,16110,10.25,74076.5,10.01,-30.61,-31.11,0,*4C
1486897624.18,16111,10.25,74082.0,10.03,-31.29,-31.67,0,*43
1486897625.44,16112,10.25,74076.3,10.03,-32.29,-32.75,0,*43
1486897626.64,16113,10.25,74080.3,10.03,-32.01,-32.57,0,*48
1486897627.89,16114,10.25,74082.0,9.99,-32.07,-32.45,0,*71
1486897629.16,16115,10.25,74076.8,10.01,-30.27,-30.77,0,*4A
1486897630.41,16116,10.25,74078.8,9.99,-30.89,-31.23,0,*74
1486897631.66,16117,10.25,74082.0,10.01,-31.33,-31.91,0,*45
1486897632.89,16118,10.25,74076.8,10.01,-32.01,-32.35,0,*45
1486897634.14,16119,10.25,74076.5,10.01,-31.73,-32.35,0,*42
1486897635.35,16120,10.25,74072.3,9.99,-30.67,-31.29,0,*7B
1486897636.59,16121,10.25,74078.3,10.01,-30.27,-30.67,0,*4C
1486897637.83,16122,10.25,74078.3,10.01,-31.33,-31.73,0,*4F
1486897639.08,16123,10.25,74076.5,10.01,-31.01,-31.51,0,*4F
1486897640.33,16124,10.25,74078.3,10.01,-30.61,-31.01,0,*4A
1486897641.56,16125,10.25,74076.5,10.01,-29.95,-30.27,0,*4D
1486897642.79,16126,10.25,74082.0,10.01,-30.83,-31.17,0,*43
1486897643.99,16127,10.25,74076.5,10.03,-31.29,-31.67,0,*46
1486897645.24,16128,10.25,74076.3,10.03,-30.61,-30.95,0,*48
1486897646.45,16129,10.25,74080.8,10.05,-29.83,-30.23,0,*46
1486897647.69,16130,10.25,74080.0,10.05,-30.05,-30.45,0,*48
1486897648.92,16131,10.25,74076.3,10.05,-30.11,-30.55,0,*4D
1486897650.16,16132,10.25,74076.8,10.03,-30.27,-30.77,0,*4D
1486897651.44,16133,10.25,74080.0,10.07,-30.05,-30.39,0,*42
1486897652.68,16134,10.25,74076.8,10.09,-29.83,-30.17,0,*41
1486897653.96,16135,10.25,74076.8,10.11,-30.61,-30.95,0,*47
1486897655.19,16136,10.25,74078.8,10.09,-31.23,-31.67,0,*46
1486897656.45,16137,10.25,74076.5,10.07,-31.17,-31.61,0,*48
1486897657.74,16138,10.25,74082.3,10.07,-30.89,-31.39,0,*4C
1486897658.99,16139,10.25,74076.0,10.09,-31.11,-31.57,0,*4B
1486897660.22,16140,10.25,74078.3,10.09,-31.29,-31.57,0,*4E
1486897661.45,16141,10.25,74076.3,10.09,-30.61,-31.01,0,*41
1486897662.67,16142,10.25,74078.3,10.09,-31.33,-31.85,0,*48
1486897663.93,16143,10.25,74078.5,10.07,-30.23,-30.55,0,*4B
1486897665.13,16144,10.25,74076.0,10.09,-30.67,-31.01,0,*42
1486897666.36,16145,10.25,74082.0,10.09,-30.67,-30.95,0,*4F
1486897667.57,16146,10.25,74080.3,10.09,-30.11,-30.45,0,*40
1486897668.85,16147,10.25,74078.8,10.11,-31.23,-31.57,0,*4A
1486897670.12,16148,10.25,74082.0,10.11,-30.67,-31.23,0,*47
1486897671.36,16149,10.25,74076.3,10.11,-30.11,-30.33,0,*47
1486897672.64,16150,10.25,74080.3,10.11,-30.17,-30.51,0,*4D
1486897673.87,16151,10.25,74076.5,10.13,-30.11,-30.51,0,*48
1486897675.11,16152,10.25,74076.0,10.13,-29.51,-29.83,0,*40
1486897676.35,16153,10.25,74076.5,10.13,-29.35,-29.67,0,*49
1486897677.62,16154,10.25,74078.0,10.15,-29.57,-29.89,0,*4C
1486897678.89,16155,10.25,74080.0,10.15,-29.73,-30.05,0,*47
1486897680.13,16156,10.25,74078.0,10.15,-29.95,-30.27,0,*4C
1486897681.36,16157,10.25,74078.8,10.21,-29.73,-29.95,0,*43
1486897682.59,16158,10.25,74076.3,10.17,-29.83,-30.05,0,*47
1486897683.82,16159,10.25,74076.5,10.17,-30.05,-30.67,0,*44
1486897685.03,16160,10.25,74076.0,10.21,-29.79,-30.27,0,*4C
1486897686.24,16161,10.25,74076.8,10.21,-29.95,-30.27,0,*4F
1486897687.49,16162,10.25,74074.5,10.23,-28.97,-29.39,0,*4A
1486897688.69,16163,10.25,74076.5,10.21,-29.45,-29.95,0,*41
1486897689.92,16164,10.25,74078.0,10.21,-30.01,-30.45,0,*4B
1486897691.12,16165,10.25,74078.8,10.25,-29.61,-29.95,0,*45
1486897692.38,16166,10.25,74076.5,10.23,-29.73,-30.27,0,*42
1486897693.61,16167,10.25,74078.8,10.23,-29.61,-29.95,0,*41
1486897694.86,16168,10.25,74076.3,10.25,-29.35,-29.73,0,*41
1486897696.12,16169,10.25,74078.3,10.27,-30.23,-30.61,0,*46
1486897697.35,16170,10.25,74076.8,10.25,-30.11,-30.61,0,*4D
1486897698.59,16171,10.25,74076.5,10.25,-30.27,-30.73,0,*4A
1486897699.82,16172,10.25,74076.0,10.25,-29.95,-30.39,0,*46
1486897701.02,16173,10.25,74078.3,10.25,-29.79,-30.11,0,*4F